W5CGC Weather Reports


time (UTC)temp
C
wind
direction
speed
KPH
gust
KPH
rain 1hr
cm
rain 24hr
cm
rain mn
cm
humidity
%
barometer
mb
20260831123042 26 0 0.0 1.6 0.00 0.00 0.00 55 1015.4
20260831121541 26 0 0.0 8.0 0.00 0.00 0.00 54 1015.2
20260831120056 26 124 0.0 6.4 0.00 0.00 0.00 53 1015.1
20260831114542 26 116 0.0 6.4 0.00 0.00 0.00 53 1014.9
20260831113107 26 129 0.0 6.4 0.00 0.00 0.00 53 1014.9
20260831111541 27 0 0.0 3.2 0.00 0.00 0.00 52 1014.7
20260831110041 27 117 0.0 4.8 0.00 0.00 0.00 51 1014.6
20260831104544 27 115 0.0 8.0 0.00 0.00 0.00 50 1014.4
20260831103047 27 0 0.0 6.4 0.00 0.00 0.00 50 1014.5
20260831101548 27 123 0.0 3.2 0.00 0.00 0.00 49 1014.5
20260831100043 27 112 0.0 3.2 0.00 0.00 0.00 49 1014.4
20260831094553 27 116 0.0 4.8 0.00 0.00 0.00 48 1014.4
20260831093041 27 117 0.0 3.2 0.00 0.00 0.00 47 1014.4
20260831091546 27 116 0.0 3.2 0.00 0.00 0.00 47 1014.4
20260831090046 27 0 0.0 4.8 0.00 0.00 0.00 45 1014.3
20260831084542 28 116 0.0 6.4 0.00 0.00 0.00 44 1014.2
20260831083045 28 115 0.0 4.8 0.00 0.00 0.00 43 1014.3
20260831081541 28 122 0.0 6.4 0.00 0.00 0.00 42 1014.3
20260831080043 28 115 1.6 8.0 0.00 0.00 0.00 41 1014.3
20260831074547 28 104 1.6 6.4 0.00 0.00 0.00 40 1014.2
20260831073046 28 115 1.6 3.2 0.00 0.00 0.00 40 1014.1
20260831071545 28 96 0.0 4.8 0.00 0.00 0.00 40 1014.1
20260831070048 27 119 1.6 3.2 0.00 0.00 0.00 41 1014.1
20260831064547 27 0 0.0 0.0 0.00 0.00 0.00 42 1014.2
20260831063043 28 0 0.0 1.6 0.00 0.00 0.00 41 1014.3
20260831061540 28 0 0.0 1.6 0.00 0.00 0.00 40 1014.1
20260831060044 28 0 0.0 1.6 0.00 0.00 0.00 41 1014.1
20260831054543 28 0 0.0 1.6 0.00 0.00 0.00 41 1014.2
20260831053042 28 0 0.0 1.6 0.00 0.00 0.00 41 1014.1
20260831051551 27 0 0.0 0.0 0.00 0.00 0.00 43 1014.0
20260831050045 27 0 0.0 0.0 0.00 0.00 0.00 42 1013.9
20260831044541 28 0 0.0 0.0 0.00 0.00 0.00 40 1013.8
20260831043041 29 0 0.0 0.0 0.00 0.00 0.00 37 1013.9
20260831041548 30 0 0.0 1.6 0.00 0.00 0.00 36 1013.8
20260831040044 30 0 0.0 1.6 0.00 0.00 0.00 35 1013.8
20260831034548 30 0 0.0 1.6 0.00 0.00 0.00 34 1013.8
20260831033038 31 0 0.0 1.6 0.00 0.00 0.00 33 1013.7
20260831031540 31 0 0.0 1.6 0.00 0.00 0.00 33 1013.6
20260831030042 30 0 0.0 0.0 0.00 0.00 0.00 34 1013.5
20260831024545 31 0 0.0 0.0 0.00 0.00 0.00 32 1013.3
20260831023041 31 0 0.0 0.0 0.00 0.00 0.00 31 1013.2
20260831021541 31 0 0.0 1.6 0.00 0.00 0.00 31 1012.9
20260831020052 31 0 0.0 1.6 0.00 0.00 0.00 30 1012.6
20260831014549 31 0 0.0 0.0 0.00 0.00 0.00 29 1012.4
20260831013101 32 0 0.0 0.0 0.00 0.00 0.00 27 1012.2
20260831011549 32 0 0.0 0.0 0.00 0.00 0.00 25 1012.1
20260831010051 34 0 0.0 1.6 0.00 0.00 0.00 23 1012.0
20260831004543 34 0 0.0 6.4 0.00 0.00 0.00 21 1011.9
20260831003045 35 0 0.0 4.8 0.00 0.00 0.00 21 1012.0
20260831001544 35 81 3.2 12.9 0.00 0.00 0.00 20 1012.0
20260831000044 36 125 1.6 11.3 0.00 0.00 0.00 19 1012.1
20260830234543 36 118 1.6 8.0 0.00 0.00 0.00 18 1012.0
20260830233045 36 112 3.2 12.9 0.00 0.00 0.00 16 1012.1
20260830231543 36 124 1.6 14.5 0.00 0.00 0.00 16 1012.1
20260830230040 37 150 3.2 16.1 0.00 0.00 0.00 16 1012.3
20260830224542 37 160 1.6 11.3 0.00 0.00 0.00 16 1012.3
20260830223107 37 158 1.6 14.5 0.00 0.00 0.00 16 1012.4
20260830221546 37 20 1.6 14.5 0.00 0.00 0.00 16 1012.4
20260830220044 38 158 0.0 11.3 0.00 0.00 0.00 16 1012.4
20260830214546 38 55 1.6 8.0 0.00 0.00 0.00 15 1012.4
20260830213045 38 170 0.0 12.9 0.00 0.00 0.00 16 1012.5
20260830211547 38 171 0.0 6.4 0.00 0.00 0.00 16 1012.8
20260830210040 38 84 0.0 11.3 0.00 0.00 0.00 17 1012.8
20260830204549 38 146 3.2 16.1 0.00 0.00 0.00 17 1013.1
20260830203042 39 133 3.2 11.3 0.00 0.00 0.00 15 1013.3
20260830201541 38 131 1.6 12.9 0.00 0.00 0.00 17 1013.5
20260830200045 38 172 3.2 11.3 0.00 0.00 0.00 17 1013.9
20260830194544 39 73 1.6 9.7 0.00 0.00 0.00 16 1014.0
20260830193042 38 141 4.8 16.1 0.00 0.00 0.00 17 1014.2
20260830191546 38 354 3.2 14.5 0.00 0.00 0.00 18 1014.3
20260830190058 38 165 1.6 14.5 0.00 0.00 0.00 19 1014.5
20260830184541 37 161 4.8 16.1 0.00 0.00 0.00 20 1014.6
20260830183058 37 117 1.6 9.7 0.00 0.00 0.00 20 1014.8
20260830181544 37 106 1.6 9.7 0.00 0.00 0.00 22 1015.1
20260830180044 37 90 3.2 12.9 0.00 0.00 0.00 24 1015.3
20260830174556 36 146 1.6 12.9 0.00 0.00 0.00 25 1015.5
20260830173041 36 149 1.6 16.1 0.00 0.00 0.00 27 1015.7
20260830171542 35 95 1.6 9.7 0.00 0.00 0.00 26 1015.9
20260830170042 35 89 0.0 9.7 0.00 0.00 0.00 30 1016.1
20260830164555 35 123 3.2 12.9 0.00 0.00 0.00 29 1016.3
20260830163046 34 128 0.0 9.7 0.00 0.00 0.00 33 1016.3
20260830161547 33 147 1.6 4.8 0.00 0.00 0.00 34 1016.4
20260830160043 33 0 1.6 8.0 0.00 0.00 0.00 37 1016.4
20260830154542 32 0 0.0 12.9 0.00 0.00 0.00 38 1016.4
20260830153047 32 134 0.0 4.8 0.00 0.00 0.00 42 1016.4
20260830151546 31 0 0.0 3.2 0.00 0.00 0.00 43 1016.4
20260830150040 30 122 0.0 8.0 0.00 0.00 0.00 43 1016.3
20260830144540 30 0 0.0 4.8 0.00 0.00 0.00 45 1016.3
20260830143049 29 0 0.0 6.4 0.00 0.00 0.00 47 1016.3
20260830141543 28 115 0.0 8.0 0.00 0.00 0.00 49 1016.4
20260830140046 28 0 0.0 1.6 0.00 0.00 0.00 52 1016.4
20260830134545 27 0 0.0 4.8 0.00 0.00 0.00 54 1016.4
20260830133040 26 129 0.0 1.6 0.00 0.00 0.00 56 1016.3
20260830131547 26 0 0.0 1.6 0.00 0.00 0.00 59 1016.2
20260830130045 25 0 0.0 1.6 0.00 0.00 0.00 61 1016.0
20260830124542 23 0 0.0 0.0 0.00 0.00 0.00 63 1015.7